Change the Weather History Date:

Friday, May 10, 2013

  Actual Average (KGUC) Record (KGUC)
Temperature  
Mean Temperature 28 °F -  
Max Temperature 33 °F 60 °F 73 °F (2000)
Min Temperature 23 °F 28 °F 21 °F (2003)
Degree Days  
Heating Degree Days 37    
Moisture  
Dew Point 24 °F    
Average Humidity 81    
Maximum Humidity 100    
Minimum Humidity 60    
Precipitation  
Precipitation 0.00 in - - ()
Sea Level Pressure  
Sea Level Pressure 30.52 in    
Wind  
Wind Speed 18 mph (ENE)    
Max Wind Speed 32 mph    
Max Gust Speed 41 mph    
Averages and records for this station are not official NWS values.
T = Trace of Precipitation, MM = Missing Value Source: NWS Daily Summary

Daily Weather History Graph

Daily Weather History Graph

Search for Another Location

Airport or City:

Trip Planner

Search our weather history database for the weather conditions in past years. The results will help you decide how hot, cold, wet, or windy it might be!

Date:

Astronomy

May. 10, 2013 Rise Set
Actual Time 5:58 AM MDT 8:05 PM MDT
Civil Twilight 5:28 AM MDT 8:35 PM MDT
Nautical Twilight 4:52 AM MDT 9:11 PM MDT
Astronomical Twilight 4:13 AM MDT 9:50 PM MDT
Moon 6:24 AM MDT (5/10) 8:57 PM MDT (5/10)
Length of Visible Light 15h 06m
Length of Day
14h 07m
New Moon, 1% of the Moon is Illuminated
May 10
New Moon
May 17
First Quarter
May 24
Full
May 31
Last Quarter
Jun 8
New

Hourly Weather History & Observations

Time (MDT) Temp. Windchill Dew Point Humidity Pressure Visibility Wind Dir Wind Speed Gust Speed Precip Events Conditions
12:12 AM 26.6 °F - 24.8 °F 93% 30.47 in - North - - N/A   Overcast
12:32 AM 26.6 °F - 23.0 °F 86% 30.47 in - North - - N/A   Overcast
12:52 AM 26.6 °F - 23.0 °F 86% 30.48 in - North - - N/A   Overcast
1:12 AM 26.6 °F - 23.0 °F 86% 30.47 in - North - - N/A   Overcast
1:32 AM 26.6 °F - 23.0 °F 86% 30.46 in - North - - N/A   Overcast
1:52 AM 24.8 °F - 23.0 °F 93% 30.46 in - North - - N/A   Overcast
2:12 AM 24.8 °F - 23.0 °F 93% 30.45 in - North - - N/A   Unknown
2:32 AM 24.8 °F - 23.0 °F 93% 30.46 in - North - - N/A   Unknown
2:52 AM 23.0 °F - 23.0 °F 100% 30.46 in - North - - N/A   Unknown
3:12 AM 23.0 °F - 23.0 °F 100% 30.46 in - North - - N/A   Unknown
3:32 AM 23.0 °F - 23.0 °F 100% 30.46 in - North - - N/A   Unknown
3:52 AM 23.0 °F - 23.0 °F 100% 30.46 in - North - - N/A   Unknown
4:12 AM 23.0 °F - 23.0 °F 100% 30.46 in - North - - N/A   Unknown
4:32 AM 23.0 °F - 21.2 °F 93% 30.46 in - North - - N/A   Unknown
4:52 AM 23.0 °F - 21.2 °F 93% 30.45 in - North - - N/A   Unknown
5:12 AM 23.0 °F - 21.2 °F 93% 30.45 in - North - - N/A   Unknown
5:32 AM 23.0 °F - 21.2 °F 93% 30.45 in - North - - N/A   Unknown
6:12 AM 23.0 °F - 21.2 °F 93% 30.46 in - North - - N/A   Unknown
6:32 AM 24.8 °F - 21.2 °F 86% 30.46 in - North - - N/A   Unknown
7:12 AM 26.6 °F - 21.2 °F 80% 30.48 in - North - - N/A   Unknown
7:32 AM 26.6 °F - 21.2 °F 80% 30.48 in - North - - N/A   Clear
7:52 AM 28.4 °F - 23.0 °F 80% 30.48 in - North - - N/A   Clear
8:12 AM 28.4 °F - 23.0 °F 80% 30.48 in - North - - N/A   Unknown
8:32 AM 28.4 °F 24.6 °F 23.0 °F 80% 30.49 in - North 3.5 mph - N/A   Clear
8:52 AM 28.4 °F - 26.6 °F 93% 30.50 in - Calm Calm - N/A   Unknown
9:12 AM 28.4 °F 22.2 °F 23.0 °F 80% 30.50 in - East 5.8 mph 20.7 mph N/A   Mostly Cloudy
9:32 AM 28.4 °F 21.2 °F 24.8 °F 86% 30.51 in - ENE 6.9 mph - N/A   Mostly Cloudy
9:52 AM 30.2 °F 21.9 °F 26.6 °F 86% 30.51 in - ENE 9.2 mph - N/A   Mostly Cloudy
10:12 AM 30.2 °F - 26.6 °F 86% 30.51 in - North - - N/A   Unknown
10:32 AM 30.2 °F - 28.4 °F 93% 30.51 in - North - - N/A   Unknown
11:12 AM 30.2 °F - 26.6 °F 86% 30.52 in - North - - N/A   Overcast
11:32 AM 32.0 °F - 26.6 °F 80% 30.53 in - North - - N/A   Overcast
11:52 AM 32.0 °F - 26.6 °F 80% 30.52 in - North - - N/A   Overcast
12:12 PM 32.0 °F - 24.8 °F 75% 30.52 in - North - - N/A   Mostly Cloudy
12:32 PM 32.0 °F - 24.8 °F 75% 30.52 in - North - - N/A Thunderstorm Overcast
12:52 PM 32.0 °F - 26.6 °F 80% 30.52 in - North - - N/A   Mostly Cloudy
1:12 PM 32.0 °F 20.1 °F 26.6 °F 80% 30.52 in - ENE 19.6 mph 28.8 mph N/A   Scattered Clouds
1:32 PM 32.0 °F 18.9 °F 24.8 °F 75% 30.51 in - ENE 24.2 mph 27.6 mph N/A   Scattered Clouds
1:52 PM 33.8 °F 21.6 °F 23.0 °F 65% 30.51 in - ENE 23.0 mph 39.1 mph N/A   Scattered Clouds
2:12 PM 33.8 °F 21.0 °F 21.2 °F 60% 30.51 in - ENE 25.3 mph 36.8 mph N/A   Mostly Cloudy
2:32 PM 33.8 °F 20.1 °F 23.0 °F 65% 30.49 in - ENE 29.9 mph 35.7 mph N/A   Mostly Cloudy
2:52 PM 33.8 °F 20.5 °F 23.0 °F 65% 30.51 in - ENE 27.6 mph 34.5 mph N/A   Mostly Cloudy
3:12 PM 33.8 °F 20.3 °F 23.0 °F 65% 30.51 in - ENE 28.8 mph 34.5 mph N/A   Mostly Cloudy
3:32 PM 33.8 °F 20.1 °F 23.0 °F 65% 30.51 in - ENE 29.9 mph 35.7 mph N/A   Overcast
3:52 PM 33.8 °F 21.0 °F 21.2 °F 60% 30.51 in - ENE 25.3 mph 32.2 mph N/A   Overcast
4:12 PM 33.8 °F 20.1 °F 23.0 °F 65% 30.51 in - ENE 29.9 mph 36.8 mph N/A   Mostly Cloudy
4:32 PM 33.8 °F 19.6 °F 23.0 °F 65% 30.51 in - ENE 32.2 mph 36.8 mph N/A   Mostly Cloudy
4:52 PM 33.8 °F 19.9 °F 23.0 °F 65% 30.51 in - ENE 31.1 mph 36.8 mph N/A   Scattered Clouds
5:12 PM 32.0 °F 17.2 °F 26.6 °F 80% 30.50 in - ENE 32.2 mph 41.4 mph N/A   Scattered Clouds
5:32 PM 32.0 °F 18.4 °F 26.6 °F 80% 30.53 in - ENE 26.5 mph 34.5 mph N/A   Scattered Clouds
5:52 PM 32.0 °F 18.6 °F 24.8 °F 75% 30.53 in - ENE 25.3 mph - N/A   Clear
6:12 PM 32.0 °F 18.9 °F 23.0 °F 69% 30.54 in - ENE 24.2 mph 32.2 mph N/A   Scattered Clouds
6:32 PM 32.0 °F 19.2 °F 23.0 °F 69% 30.54 in - ENE 23.0 mph 26.5 mph N/A   Clear
6:52 PM 32.0 °F 19.2 °F 23.0 °F 69% 30.55 in - ENE 23.0 mph - N/A   Clear
7:12 PM 32.0 °F 19.2 °F 23.0 °F 69% 30.55 in - ENE 23.0 mph - N/A   Clear
7:32 PM 32.0 °F 19.5 °F 23.0 °F 69% 30.56 in - ENE 21.9 mph 28.8 mph N/A   Clear
7:52 PM 30.2 °F 16.8 °F 23.0 °F 75% 30.56 in - ENE 23.0 mph - N/A   Clear
8:12 PM 30.2 °F 16.5 °F 23.0 °F 75% 30.57 in - ENE 24.2 mph - N/A   Clear
8:32 PM 30.2 °F 17.4 °F 23.0 °F 75% 30.58 in - ENE 20.7 mph - N/A   Clear
8:52 PM 28.4 °F 15.1 °F 23.0 °F 80% 30.59 in - ENE 20.7 mph - N/A   Scattered Clouds
9:12 PM 28.4 °F 16.2 °F 24.8 °F 86% 30.61 in - ENE 17.3 mph - N/A   Unknown
9:32 PM 28.4 °F 15.1 °F 24.8 °F 86% 30.61 in - ENE 20.7 mph - N/A   Unknown
9:52 PM 30.2 °F 17.1 °F 26.6 °F 86% 30.61 in - ENE 21.9 mph - N/A   Unknown
10:12 PM 30.2 °F 17.4 °F 26.6 °F 86% 30.62 in - ENE 20.7 mph - N/A   Unknown
10:32 PM 30.2 °F 16.8 °F 26.6 °F 86% 30.62 in - East 23.0 mph - N/A   Overcast
10:52 PM 30.2 °F 16.5 °F 24.8 °F 80% 30.63 in - ENE 24.2 mph - N/A   Overcast
11:12 PM 30.2 °F 17.1 °F 24.8 °F 80% 30.63 in - ENE 21.9 mph - N/A   Overcast
11:32 PM 30.2 °F 16.5 °F 24.8 °F 80% 30.63 in - ENE 24.2 mph - N/A   Overcast
11:52 PM 28.4 °F 15.1 °F 24.8 °F 86% 30.64 in - ENE 20.7 mph - N/A   Unknown